SCP
0 0 0 0 0 0 0 0 0 0 0 0 0 0 0 0 0 0 0 0 0 0 0 0 0 0 0 0 0 0 0 0 0 0 0 0 0 0 0 0 0 0 0 0
0 0 0 0 0 0 0 0 0 0 0 0 0 0 0 0 0 0 0 0 0 0 0 0 0 0 0 0 0 0 0 0 0 0 0 0 0 0 0 0 0 0 0 0
0 0 0 0 0 0 0 0 0 0 0 0 0 0 0 0 0 0 0 0 0 0 0 0 0 0 0 0 0 0 0 0 0 0 0 0 0 0 0 0 0 0 0 0
0 0 0 0 0 0 0 0 0 0 0 0 0 -0 -0 0 0 0 0 0 0 0 0 0 0 0 0 0 0 0 0 0 0 0 0 0 0 0 0 0 0 0 0 0
0 0 0 0 0 0 0 0 0 0 0 0 0 0 0 0 0 0 0 0 0 0 0 0 0 0 0 0 0 0 0 0 0 0 0 0 0 0 0 0 0 0 0 0
0 0 0 0 0 0 0 0 0 0 0 0 0 0 0 -0 0 0 0 0 0 0 0 0 0 0 0 0 0 0 0 0 0 0 0 0 0 0 0 0 0 0 0 0
0 0 0 0 0 0 0 0 0 0 0 0 0 0 0 0 0 0 0 0 0 0 0 0 0 0 0 0 0 0 0 0 0 0 0 0 0 0 0 0 0 0 0 0
0 0 0 0 0 0 0 0 0 0 0 0 0 0 0 0 0 0 0 0 0 0 0 0 0 0 0 0 0 0 0 0 0 0 0 0 0 0 0 0 0 0 0 0
0 0 0 0 0 0 0 0 0 0 0 -0 0 0 0 0 0 0 0 0 0 0 0 0 0 0 0 0 0 0 0 0 0 0 0 0 0 0 0 0 0 0 0 0
0 0 0 0 0 0 0 0 0 0 0 0 0 0 0 0 0 0 0 0 0 0 0 0 0 0 0 0 0 0 0 0 0 0 0 0 0 0 0 0 0 0 0 0
0 0 0 0 0 0 0 0 0 0 0 0 0 0 0 0 0 0 0 0 0 0 0 0 0 0 0 0 0 0 0 0 0 0 0 0 0 0 0 0 0 0 0 0
0 0 0 0 0 0 0 0 0 0 -0 -0 0 0 0 0 0 0 0 0 0 0 0 0 0 0 0 0 0 0 0 0 0 0 0 0 0 0 0 0 0 0 0 0
0 0 0 0 0 0 0 0 0 0 0 0 0 0 0 0 0 0 0 0 0 0 0 0 0 0 0 0 0 0 0 0 0 0 0 0 0 0 0 0 0 0 0 0
0 0 0 0 0 0 0 0 0 0 0 0 0 0 0 -0 0 0 0 0 0 0 0 0 0 0 0 0 0 0 0 0 0 0 0 0 0 0 0 0 0 0 0 0
0 0 0 0 0 0 0 0 0 0 0 0 0 0 0 0 0 0 0 0 0 0 0 0 0 0 0 0 0 0 0 0 0 0 0 0 0 0 0 0 0 0 0 0
0 0 0 0 0 0 0 0 0 0 0 0 0 0 0 0 0 0 0 0 0 0 0 0 0 0 0 0 0 0 0 0 0 0 0 0 0 0 0 0 0 0 0 0
0 0 0 0 0 0 0 0 -0 0 0 0 0 0 0 0 0 0 0 0 0 0 0 0 0 0 0 0 0 0 0 0 0 0 0 0 0 0 0 0 0 0 0 0
0 0 0 0 0 0 0 0 0 0 0 0 0 0 0 0 0 0 0 0 0 0 0 0 0 0 0 0 0 0 0 0 0 0 0 0 0 0 0 0 0 0 0 0
0 0 0 0 0 0 0 0 0 0 0 0 0 0 0 0 0 0 0 0 0 0 0 0 0 0 0 0 0 0 0 0 0 0 0 0 0 0 0 0 0 0 0 0
0 0 0 0 0 0 0 0 0 0 0 0 0 0 0 0 0 0 0 0 0 0 0 0 0 0 0 0 0 0 0 0 0 0 0 0 0 0 0 0 0 0 0 0
0 0 0 0 0 0 0 0 0 0 0 0 0 0 0 0 0 0 0 0 0 0 0 0 0 0 0 0 0 0 0 0 0 0 0 0 0 0 0 0 0 0 0 0
0 0 0 0 0 0 0 -0 -0 0 0 0 0 0 0 0 0 0 0 0 0 0 0 0 0 0 0 0 0 0 0 0 0 0 0 0 0 0 0 0 0 0 0 0
0 0 0 0 0 0 0 -0 -0 -0 0 0 0 0 0 0 0 0 0 0 0 0 0 0 0 0 0 0 0 0 0 0 0 0 0 0 0 0 0 0 0 0 0 0
0 0 0 0 0 0 0 -0 -0 -0 0 0 0 0 0 0 0 0 0 0 0 0 0 0 0 0 0 0 0 0 0 0 0 0 0 0 0 0 0 0 0 0 0 0
0 0 0 0 0 0 0 -0 -0 0 0 0 0 0 0 0 0 0 0 0 0 0 0 0 0 0 0 0 0 0 0 0 0 0 0 0 0 0 0 0 0 0 0 0
0 0 0 0 0 0 0 0 -0 0 0 0 0 0 0 0 0 0 0 0 0 0 0 0 0 0 0 0 0 0 0 0 0 0 0 0 0 0 0 0 0 0 0 0
Wind_Speed
2 2 2 4 4 3 3 2 2 4 3 0 2 3 3 2 1 1 1 0 1 1 0 1 1 1 2 3 3 4 4 3 3 2 2 2 2 2 1 1 2 3 4 4
2 2 4 2 1 1 2 2 2 3 2 0 1 4 3 2 2 2 2 2 2 1 2 2 2 1 2 3 3 4 4 4 4 2 2 2 2 2 2 1 2 2 3 4
2 3 3 1 1 1 3 3 2 2 3 2 1 4 4 2 2 1 1 1 1 1 1 1 1 1 1 2 3 3 3 3 3 3 3 2 3 2 2 1 1 1 3 3
1 3 1 1 2 1 4 2 2 2 1 1 0 3 5 2 2 2 3 2 1 1 1 1 1 1 0 1 1 2 3 3 3 3 4 4 3 3 3 3 2 2 2 3
2 2 1 1 3 1 3 1 0 1 1 1 1 1 6 1 3 4 4 3 2 1 1 1 1 1 0 0 0 1 2 2 2 3 4 4 2 2 2 2 3 2 2 3
2 2 1 2 2 1 1 2 3 2 2 1 3 2 6 3 5 4 3 2 2 1 1 1 2 1 1 1 1 1 2 1 2 2 3 4 4 3 4 3 3 2 2 2
5 3 2 1 2 2 3 4 2 2 0 4 2 3 7 4 2 2 2 2 2 1 1 2 3 2 2 2 1 1 1 1 1 1 2 3 3 4 5 5 4 4 3 2
3 4 3 3 1 1 1 3 3 2 2 2 1 5 6 2 2 2 1 1 1 2 2 2 2 1 1 1 1 1 1 1 1 1 1 1 2 2 2 3 4 4 4 3
1 4 4 2 1 2 1 1 2 3 1 1 4 6 6 3 4 3 3 3 3 3 3 2 2 2 1 1 1 1 1 1 0 1 0 1 1 2 2 3 3 3 2 3
1 3 4 5 3 3 1 3 3 3 2 2 4 4 4 4 5 4 3 3 4 4 4 3 2 2 2 1 2 1 1 1 0 1 1 1 1 1 2 3 3 3 3 3
1 0 5 4 2 1 2 2 2 2 2 3 3 5 2 3 3 3 3 3 3 3 3 3 3 3 2 2 2 1 1 1 1 0 0 0 1 0 1 2 3 3 3 4
1 2 2 4 3 1 0 1 2 2 2 2 2 6 2 3 2 2 4 5 4 4 3 3 3 3 3 3 3 3 2 1 1 0 0 0 0 0 0 1 2 3 3 4
1 3 3 5 4 3 2 1 1 2 2 2 3 6 2 4 4 4 4 5 4 4 4 4 4 4 4 4 4 3 3 2 2 1 0 0 0 0 0 1 1 2 3 4
3 2 3 5 4 2 3 2 0 2 2 3 5 6 6 6 6 6 5 5 4 4 4 5 5 5 4 4 4 4 4 3 2 1 1 0 0 1 1 1 1 2 3 4
3 1 2 4 4 2 3 4 2 4 5 5 5 5 7 6 4 4 4 5 5 5 5 5 5 5 5 5 5 4 4 4 2 1 1 1 0 1 1 1 1 2 3 4
3 1 1 3 2 2 3 4 4 4 4 5 5 7 5 4 2 3 4 4 5 5 5 6 6 6 5 5 5 5 4 4 3 1 1 0 1 1 1 1 2 3 3 4
1 1 1 3 4 3 4 4 4 3 3 4 6 5 3 4 4 4 4 3 4 5 5 6 5 5 5 5 5 5 4 4 3 2 1 0 1 1 1 1 2 3 3 3
2 2 1 1 4 3 5 1 2 3 4 3 3 4 4 5 5 5 3 2 3 4 5 5 5 5 5 5 5 4 4 3 3 2 1 0 1 1 1 2 2 2 2 3
2 3 2 1 1 7 6 2 1 2 5 2 3 4 4 4 4 3 1 2 3 4 4 4 4 4 4 4 4 4 4 3 3 2 1 0 1 1 1 1 2 2 3 2
3 2 3 2 2 6 5 2 1 1 5 2 2 4 4 3 3 4 3 4 5 5 4 4 4 4 4 4 3 3 3 3 3 3 2 0 1 1 1 1 2 2 3 2
1 1 2 3 4 8 4 2 2 2 5 2 2 3 2 2 4 5 5 4 4 4 4 4 3 3 4 4 3 2 2 3 3 3 2 1 1 1 1 1 1 3 3 3
4 4 4 4 4 9 2 3 4 6 3 2 2 2 3 4 5 4 4 4 4 4 4 3 3 4 4 3 2 2 3 3 3 2 1 1 1 1 1 2 2 3 4 4
6 7 5 8 8 4 3 4 4 2 2 3 3 3 3 4 4 4 4 4 4 4 4 3 3 4 4 4 3 2 4 3 2 1 1 1 1 1 1 2 2 2 3 3
4 2 3 5 8 6 5 4 4 3 4 5 4 4 3 4 4 4 4 3 3 4 3 3 3 3 4 4 4 3 3 2 1 1 1 1 2 2 1 1 2 2 2 2
5 4 3 6 7 5 5 5 6 5 4 4 4 3 3 3 4 3 3 3 3 3 3 3 2 3 4 4 4 4 3 1 1 1 1 1 1 2 2 2 1 1 1 2
6 8 7 8 6 5 6 4 4 4 4 5 4 3 2 3 4 3 3 3 2 3 3 3 3 3 4 4 4 4 3 0 1 1 1 1 1 1 2 2 2 4 3 4
Wind_Direction
37 69 232 233 221 222 203 198 241 265 292 256 211 250 273 275 309 293 304 229 206 221 0 48 37 139 135 141 155 163 148 147 141 136 141 144 148 138 134 140 147 149 143 146
53 271 270 268 252 195 207 210 262 308 346 242 235 267 270 255 240 234 226 224 239 324 25 36 22 89 144 161 169 177 171 168 168 161 156 158 144 141 138 137 140 149 150 154
184 270 283 261 227 220 231 212 222 275 358 8 331 295 262 257 231 265 260 231 223 205 238 359 11 28 123 168 183 186 182 173 168 142 119 102 89 86 109 125 161 174 163 157
294 296 286 230 236 219 253 241 234 266 35 313 120 274 279 251 252 260 267 270 268 269 274 308 341 359 202 233 194 162 167 165 166 153 153 157 169 175 188 174 173 175 166 161
292 304 291 236 258 230 239 261 207 232 157 341 358 205 285 315 260 250 251 256 269 273 251 254 266 237 293 350 114 142 149 151 159 168 170 169 172 163 138 141 156 163 169 168
285 282 240 256 268 232 232 57 51 44 80 249 229 189 276 246 236 250 251 264 292 320 349 350 336 24 21 30 55 99 127 139 149 164 172 172 170 159 152 162 169 169 175 175
339 322 341 360 34 17 82 91 59 27 18 247 210 197 252 257 251 236 243 269 295 329 14 12 4 14 6 20 27 63 118 117 129 161 180 181 179 173 178 178 177 175 179 189
2 315 330 360 83 198 199 127 138 187 222 291 293 233 258 305 336 343 336 320 355 3 3 359 335 347 350 348 7 58 125 131 119 158 211 199 177 173 194 191 181 187 192 190
14 296 325 327 324 126 115 131 148 126 74 291 267 285 302 360 357 1 3 6 349 351 354 349 348 354 1 343 299 229 184 139 160 212 187 191 190 182 193 194 184 186 180 166
157 290 313 325 16 20 118 140 95 106 127 260 283 272 279 313 316 327 340 342 343 351 350 352 350 349 347 327 307 285 207 173 189 189 195 237 239 218 196 181 182 183 174 159
66 84 322 1 30 330 27 60 95 119 152 168 261 275 256 286 296 298 310 327 334 338 339 341 340 339 354 6 13 3 3 24 33 46 200 240 261 263 198 184 185 178 167 160
37 96 311 287 278 312 20 150 134 148 233 189 199 270 342 336 335 337 337 343 345 346 347 347 349 358 9 13 11 3 357 357 323 279 154 174 208 166 132 189 183 169 166 164
87 91 17 348 350 7 22 3 75 114 126 181 203 264 343 10 10 3 354 347 348 355 360 360 4 6 3 0 356 354 347 342 338 354 50 56 172 166 205 214 178 164 158 152
80 110 168 209 242 253 288 296 281 137 180 222 233 263 308 332 338 339 343 345 349 358 2 1 360 358 353 351 347 346 344 343 352 1 4 336 254 240 214 192 164 156 154 150
70 109 241 256 261 255 259 267 245 206 213 214 248 261 285 302 305 314 328 342 355 355 356 358 354 349 348 348 345 344 344 347 350 356 332 290 321 39 81 122 136 136 143 148
52 91 336 303 294 286 285 275 249 237 242 245 266 278 284 303 329 330 332 342 345 344 345 346 347 346 342 338 335 336 338 337 341 336 298 334 69 71 81 115 125 126 129 133
59 95 37 292 319 1 285 250 214 222 226 211 237 262 314 325 324 313 309 317 322 331 337 337 335 331 327 325 326 325 323 329 336 324 319 39 86 87 89 116 120 131 134 131
142 120 129 318 13 261 253 274 215 234 257 247 262 293 300 292 299 293 280 293 316 327 327 325 325 326 326 326 331 330 331 338 337 334 328 54 102 103 93 107 128 134 134 142
160 144 121 106 283 281 291 272 192 225 279 264 258 287 305 320 328 319 325 340 313 309 307 309 312 315 320 325 328 336 340 342 340 334 320 294 143 138 119 125 138 134 135 137
64 93 123 135 198 252 266 300 304 76 290 287 252 280 303 348 340 297 333 335 325 327 328 328 329 332 329 327 332 344 339 340 330 324 317 320 137 148 153 151 144 133 134 134
45 60 160 181 229 265 266 292 85 159 261 289 243 262 269 241 241 284 317 322 323 325 329 336 337 334 325 326 337 343 336 324 317 329 340 20 75 123 136 120 132 132 128 119
183 178 194 169 210 255 248 130 186 229 270 274 257 252 256 267 284 299 308 314 324 328 331 338 338 333 329 329 338 339 325 320 328 343 8 41 49 94 113 110 108 120 127 122
206 197 193 199 220 248 199 213 240 239 252 261 258 268 271 284 293 303 309 313 317 319 323 333 333 331 334 332 333 324 317 324 337 3 40 58 57 65 103 118 120 116 122 128
252 193 202 257 262 259 257 259 270 258 253 266 270 269 263 270 284 295 300 310 318 321 324 331 335 335 332 334 335 323 315 318 354 59 70 87 94 82 72 87 113 123 130 134
224 183 212 256 273 296 270 247 256 269 277 282 286 268 257 261 277 279 287 295 302 311 319 325 323 321 323 331 335 332 330 347 75 81 80 82 104 113 96 73 76 108 123 139
196 186 192 232 229 218 254 262 253 257 268 273 277 282 270 244 257 269 276 284 291 302 316 327 327 326 327 333 335 336 341 38 113 95 94 96 106 110 105 96 69 61 83 84